| time (UTC) | temp C | wind direction | speed KPH | gust KPH | rain 1hr cm | rain 24hr cm | rain mn cm | humidity % | barometer mb |
| 20260901233014 | 35 | 21 | 0.0 | 1.6 | 0.00 | 0.00 | 0.00 | 48 | 991.9 |
| 20260901231514 | 35 | 27 | 0.0 | 1.6 | 0.00 | 0.00 | 0.00 | 48 | 992.0 |
| 20260901230013 | 35 | 359 | 0.0 | 1.6 | 0.00 | 0.00 | 0.00 | 48 | 992.0 |
| 20260901224513 | 35 | 31 | 0.0 | 1.6 | 0.00 | 0.00 | 0.00 | 47 | 992.1 |
| 20260901223018 | 35 | 359 | 0.0 | 1.6 | 0.00 | 0.00 | 0.00 | 47 | 992.1 |
| 20260901221521 | 35 | 286 | 0.0 | 16.1 | 0.00 | 0.00 | 0.00 | 46 | 992.1 |
| 20260901220013 | 35 | 312 | 0.0 | 1.6 | 0.00 | 0.00 | 0.00 | 46 | 992.2 |
| 20260901214510 | 35 | 359 | 0.0 | 1.6 | 0.00 | 0.00 | 0.00 | 47 | 992.3 |
| 20260901213010 | 35 | 60 | 0.0 | 3.2 | 0.00 | 0.00 | 0.00 | 47 | 992.5 |
| 20260901211510 | 35 | 40 | 0.0 | 6.4 | 0.00 | 0.00 | 0.00 | 47 | 992.7 |
| 20260901210006 | 35 | 359 | 0.0 | 0.0 | 0.00 | 0.00 | 0.00 | 47 | 992.8 |
| 20260901204504 | 36 | 359 | 0.0 | 3.2 | 0.00 | 0.00 | 0.00 | 46 | 993.0 |
| 20260901203009 | 37 | 359 | 0.0 | 0.0 | 0.00 | 0.00 | 0.00 | 44 | 993.0 |
| 20260901201502 | 37 | 275 | 3.2 | 16.1 | 0.00 | 0.00 | 0.00 | 44 | 993.2 |
| 20260901200106 | 37 | 359 | 0.0 | 1.6 | 0.00 | 0.00 | 0.00 | 44 | 993.3 |
| 20260901200003 | 37 | 312 | 0.0 | 1.6 | 0.00 | 0.00 | 0.00 | 45 | 993.3 |
| 20260901194605 | 37 | 66 | 0.0 | 14.5 | 0.00 | 0.00 | 0.00 | 44 | 993.5 |
| 20260901193058 | 37 | 33 | 0.0 | 1.6 | 0.00 | 0.00 | 0.00 | 45 | 993.5 |
| 20260901191557 | 36 | 143 | 0.0 | 3.2 | 0.00 | 0.00 | 0.00 | 47 | 993.8 |
| 20260901190107 | 36 | 276 | 0.0 | 1.6 | 0.00 | 0.00 | 0.00 | 46 | 994.1 |
| 20260901184556 | 37 | 359 | 0.0 | 3.2 | 0.00 | 0.00 | 0.00 | 44 | 994.2 |
| 20260901183052 | 36 | 293 | 0.0 | 1.6 | 0.00 | 0.00 | 0.00 | 46 | 994.5 |
| 20260901181555 | 36 | 85 | 0.0 | 1.6 | 0.00 | 0.00 | 0.00 | 47 | 995.0 |
| 20260901180046 | 35 | 20 | 0.0 | 1.6 | 0.00 | 0.00 | 0.00 | 47 | 995.2 |
| 20260901174544 | 35 | 210 | 0.0 | 1.6 | 0.00 | 0.00 | 0.00 | 50 | 995.4 |
| 20260901173103 | 34 | 111 | 0.0 | 3.2 | 0.00 | 0.00 | 0.00 | 51 | 995.7 |
| 20260901171542 | 35 | 84 | 0.0 | 9.7 | 0.00 | 0.00 | 0.00 | 50 | 995.7 |
| 20260901170042 | 35 | 68 | 0.0 | 9.7 | 0.00 | 0.00 | 0.00 | 50 | 995.9 |
| 20260901164539 | 35 | 45 | 0.0 | 3.2 | 0.00 | 0.00 | 0.00 | 51 | 996.1 |
| 20260901163034 | 34 | 181 | 0.0 | 1.6 | 0.00 | 0.00 | 0.00 | 52 | 996.1 |
| 20260901161532 | 34 | 116 | 0.0 | 1.6 | 0.00 | 0.00 | 0.00 | 54 | 996.2 |
| 20260901160029 | 33 | 133 | 0.0 | 3.2 | 0.00 | 0.00 | 0.00 | 56 | 996.1 |
| 20260901154525 | 33 | 139 | 0.0 | 1.6 | 0.00 | 0.00 | 0.00 | 57 | 996.2 |
| 20260901153035 | 32 | 119 | 0.0 | 1.6 | 0.00 | 0.00 | 0.00 | 57 | 996.2 |
| 20260901151521 | 32 | 149 | 0.0 | 9.7 | 0.00 | 0.00 | 0.00 | 59 | 996.1 |
| 20260901150018 | 32 | 129 | 0.0 | 1.6 | 0.00 | 0.00 | 0.00 | 61 | 996.1 |
| 20260901144526 | 31 | 137 | 0.0 | 1.6 | 0.00 | 0.00 | 0.00 | 64 | 996.2 |
| 20260901143012 | 30 | 54 | 0.0 | 1.6 | 0.00 | 0.00 | 0.00 | 67 | 996.4 |
| 20260901141512 | 30 | 66 | 0.0 | 1.6 | 0.00 | 0.00 | 0.00 | 68 | 996.3 |
| 20260901140009 | 29 | 112 | 0.0 | 1.6 | 0.00 | 0.00 | 0.00 | 70 | 996.2 |
| 20260901134507 | 28 | 79 | 0.0 | 1.6 | 0.00 | 0.00 | 0.00 | 71 | 996.3 |
| 20260901133009 | 27 | 165 | 0.0 | 1.6 | 0.00 | 0.00 | 0.00 | 73 | 996.4 |
| 20260901131508 | 27 | 164 | 0.0 | 1.6 | 0.00 | 0.00 | 0.00 | 73 | 996.3 |
| 20260901130003 | 26 | 174 | 0.0 | 1.6 | 0.00 | 0.00 | 0.00 | 75 | 996.1 |
| 20260901124502 | 26 | 87 | 0.0 | 1.6 | 0.00 | 0.00 | 0.00 | 75 | 995.9 |
| 20260901123001 | 26 | 66 | 0.0 | 3.2 | 0.00 | 0.00 | 0.00 | 76 | 995.6 |
| 20260901121611 | 26 | 74 | 0.0 | 1.6 | 0.00 | 0.00 | 0.00 | 75 | 995.5 |
| 20260901120106 | 26 | 89 | 0.0 | 3.2 | 0.00 | 0.00 | 0.00 | 75 | 995.3 |
| 20260901114600 | 26 | 79 | 0.0 | 1.6 | 0.00 | 0.00 | 0.00 | 75 | 995.0 |
| 20260901113055 | 26 | 107 | 0.0 | 0.0 | 0.00 | 0.00 | 0.00 | 75 | 994.9 |
| 20260901111556 | 26 | 107 | 0.0 | 0.0 | 0.00 | 0.00 | 0.00 | 74 | 995.0 |
| 20260901110052 | 26 | 101 | 0.0 | 1.6 | 0.00 | 0.00 | 0.00 | 73 | 994.9 |
| 20260901104551 | 26 | 89 | 0.0 | 1.6 | 0.00 | 0.00 | 0.00 | 72 | 994.8 |
| 20260901103056 | 26 | 91 | 0.0 | 1.6 | 0.00 | 0.00 | 0.00 | 72 | 994.8 |
| 20260901101553 | 26 | 50 | 0.0 | 1.6 | 0.00 | 0.00 | 0.00 | 71 | 994.8 |
| 20260901100048 | 26 | 75 | 0.0 | 3.2 | 0.00 | 0.00 | 0.00 | 70 | 994.9 |
| 20260901094548 | 27 | 83 | 0.0 | 3.2 | 0.00 | 0.00 | 0.00 | 70 | 995.0 |
| 20260901093114 | 27 | 50 | 0.0 | 3.2 | 0.00 | 0.00 | 0.00 | 69 | 995.0 |
| 20260901091559 | 27 | 65 | 0.0 | 3.2 | 0.00 | 0.00 | 0.00 | 67 | 994.9 |
| 20260901090042 | 27 | 67 | 0.0 | 3.2 | 0.00 | 0.00 | 0.00 | 67 | 994.8 |
| 20260901084540 | 27 | 45 | 0.0 | 1.6 | 0.00 | 0.00 | 0.00 | 66 | 994.7 |
| 20260901083044 | 27 | 53 | 0.0 | 1.6 | 0.00 | 0.00 | 0.00 | 65 | 994.6 |
| 20260901081537 | 28 | 40 | 0.0 | 1.6 | 0.00 | 0.00 | 0.00 | 64 | 994.7 |
| 20260901080038 | 28 | 93 | 0.0 | 1.6 | 0.00 | 0.00 | 0.00 | 63 | 994.6 |
| 20260901074532 | 28 | 86 | 0.0 | 3.2 | 0.00 | 0.00 | 0.00 | 62 | 994.5 |
| 20260901073029 | 28 | 43 | 0.0 | 3.2 | 0.00 | 0.00 | 0.00 | 62 | 994.5 |
| 20260901071532 | 28 | 45 | 0.0 | 3.2 | 0.00 | 0.00 | 0.00 | 61 | 994.5 |
| 20260901070029 | 28 | 42 | 0.0 | 3.2 | 0.00 | 0.00 | 0.00 | 60 | 994.4 |
| 20260901064528 | 28 | 48 | 0.0 | 3.2 | 0.00 | 0.00 | 0.00 | 59 | 994.4 |
| 20260901063023 | 29 | 38 | 0.0 | 1.6 | 0.00 | 0.00 | 0.00 | 58 | 994.3 |
| 20260901061521 | 29 | 67 | 0.0 | 3.2 | 0.00 | 0.00 | 0.00 | 58 | 994.2 |
| 20260901060018 | 30 | 31 | 0.0 | 3.2 | 0.00 | 0.00 | 0.00 | 56 | 994.0 |
| 20260901054516 | 30 | 31 | 0.0 | 3.2 | 0.00 | 0.00 | 0.00 | 56 | 993.9 |
| 20260901053017 | 30 | 70 | 0.0 | 3.2 | 0.00 | 0.00 | 0.00 | 55 | 993.7 |
| 20260901051514 | 30 | 72 | 0.0 | 4.8 | 0.00 | 0.00 | 0.00 | 55 | 993.7 |
| 20260901050011 | 30 | 35 | 0.0 | 9.7 | 0.00 | 0.00 | 0.00 | 54 | 993.6 |
| 20260901044512 | 30 | 4 | 0.0 | 1.6 | 0.00 | 0.00 | 0.00 | 52 | 993.5 |
| 20260901043010 | 30 | 21 | 0.0 | 1.6 | 0.00 | 0.00 | 0.00 | 51 | 993.5 |
| 20260901041510 | 31 | 28 | 0.0 | 3.2 | 0.00 | 0.00 | 0.00 | 49 | 993.5 |
| 20260901040009 | 31 | 29 | 0.0 | 1.6 | 0.00 | 0.00 | 0.00 | 49 | 993.4 |
| 20260901034511 | 32 | 55 | 0.0 | 3.2 | 0.00 | 0.00 | 0.00 | 47 | 993.3 |
| 20260901033011 | 32 | 43 | 0.0 | 3.2 | 0.00 | 0.00 | 0.00 | 47 | 993.3 |
| 20260901031512 | 32 | 42 | 0.0 | 1.6 | 0.00 | 0.00 | 0.00 | 47 | 993.3 |
| 20260901030013 | 32 | 44 | 0.0 | 3.2 | 0.00 | 0.00 | 0.00 | 46 | 993.2 |
| 20260901024506 | 32 | 69 | 0.0 | 3.2 | 0.00 | 0.00 | 0.00 | 46 | 993.0 |
| 20260901023008 | 32 | 48 | 0.0 | 3.2 | 0.00 | 0.00 | 0.00 | 45 | 992.8 |
| 20260901021506 | 32 | 39 | 0.0 | 3.2 | 0.00 | 0.00 | 0.00 | 45 | 992.6 |
| 20260901020006 | 33 | 33 | 0.0 | 3.2 | 0.00 | 0.00 | 0.00 | 44 | 992.5 |
| 20260901014504 | 33 | 56 | 0.0 | 3.2 | 0.00 | 0.00 | 0.00 | 43 | 992.5 |
| 20260901013005 | 33 | 37 | 0.0 | 1.6 | 0.00 | 0.00 | 0.00 | 42 | 992.4 |
| 20260901011504 | 34 | 44 | 0.0 | 1.6 | 0.00 | 0.00 | 0.00 | 41 | 992.4 |
| 20260901010003 | 35 | 23 | 0.0 | 3.2 | 0.00 | 0.00 | 0.00 | 40 | 992.2 |
| 20260901004502 | 35 | 33 | 0.0 | 3.2 | 0.00 | 0.00 | 0.00 | 38 | 992.2 |
| 20260901003002 | 35 | 35 | 1.6 | 8.0 | 0.00 | 0.00 | 0.00 | 37 | 992.1 |
| 20260901001506 | 36 | 23 | 0.0 | 3.2 | 0.00 | 0.00 | 0.00 | 36 | 992.1 |
| 20260901000100 | 36 | 48 | 3.2 | 16.1 | 0.00 | 0.00 | 0.00 | 35 | 992.2 |
| 20260901000001 | 36 | 53 | 1.6 | 14.5 | 0.00 | 0.00 | 0.00 | 35 | 992.1 |
| 20260831234605 | 36 | 52 | 0.0 | 9.7 | 0.00 | 0.00 | 0.00 | 34 | 992.2 |